Regional Weather Roundup
Issued by NWS Wakefield, VA

Home | Current Version | Previous Version | Text Only | Print | Product List | Glossary Off
Versions: 1 2 3 4 5 6 7 8 9 10 11 12 13 14 15 16 17 18 19 20 21 22 23 24 25 26 27 28 29 30 31 32 33 34 35 36 37 38 39 40 41 42 43 44 45 46 47 48 49 50

000
ASUS41 KAKQ 290715
RWRAKQ

REGIONAL WEATHER ROUNDUP
NATIONAL WEATHER SERVICE WAKEFIELD VA
300 AM EDT SUN MAY 29 2016

Note: "fair" indicates few or no clouds below 12,000 feet with no
significant weather and/or obstructions to visibility. * = Denotes
station may not report precipitation (e.g., rain,snow,etc.),
thunder or fog.

VAZ042-051-052>054-056-290800-
NORTHERN VIRGINIA

CITY           SKY/WX    TMP DP  RH WIND       PRES   REMARKS
WASH NATIONAL  MOCLDY    69  62  78 S5        30.13F
DULLES         FAIR      67  61  81 S5        30.13F
FORT BELVOIR   FAIR      63  62  94 CALM      30.13S
QUANTICO       FAIR      69  63  81 S6        30.13F
FREDERICKSBRG* FAIR      65  64  97 CALM      30.12F
STAFFORD*      FAIR      58  56  94 CALM      30.17F
WARRENTON      FAIR      61  56  84 CALM      30.13S
CULPEPER*      FAIR      66  64  91 CALM      30.14S
MANASSAS*      FAIR      63  61  94 CALM      30.13F
LEESBURG*      FAIR      70  66  88 S3        30.14S
WINCHESTER     FAIR      64  61  88 CALM      30.12F
FRONT ROYAL*   FAIR      63  61  94 S5        30.12S
LURAY*         FAIR      63  63 100 CALM      30.15R
$$

VAZ048-049-060>072-079>083-290800-
CENTRAL AND SOUTH CENTRAL VIRGINIA

CITY           SKY/WX    TMP DP  RH WIND       PRES   REMARKS
RICHMOND       FAIR      66  62  87 CALM      30.13F
CHESTERFIELD*  FAIR      64  52  63 CALM      30.15F
PETERSBURG*    FAIR      62  62 100 CALM      30.14F FOG
HANOVER        FAIR      62  59  90 CALM      30.15F
TAPPAHANNOCK*  FAIR      64  64  98 CALM      30.14F
QUINTON*       FAIR      63  62  97 CALM      30.14S
CHARLOTTSVILLE FAIR      65  61  87 SE6       30.14S
GORDONSVILLE*  FAIR      60  60  99 CALM      30.13S
ORANGE*        FAIR      61  61 100 CALM      30.15F
LOUISA*        FAIR      61  61 100 CALM      30.13S
BUMPASS*       FAIR      62  61  96 CALM      30.14S
FARMVILLE*     FAIR      64  64 100 CALM      30.12S
CREWE*         FAIR      60  60 100 CALM      30.13F
FORT PICKETT*  NOT AVBL
CHASE CITY*    FAIR      67  65  94 CALM      30.12F
CLARKSVILLE*   FAIR      68  66  94 E3        30.12F
SOUTH HILL*    FAIR      64  64  97 CALM      30.18F
LAWRENCEVILLE* FAIR      66  65  95 CALM      30.13F
EMPORIA*         N/A     61  61 100 CALM      30.15S
$$

VAZ088>098-290800-
SOUTHEAST VIRGINIA

CITY           SKY/WX    TMP DP  RH WIND       PRES   REMARKS
NORFOLK        FAIR      71  68  90 SE6       30.12F
VIRGINIA BEACH MOCLDY    74  67  78 SE5       30.12F
NORFOLK NAVAL  MOCLDY    71  67  87 SE3       30.13F
WEST POINT*    FAIR      62  60  94 CALM      30.15F
SALUDA*        FAIR      65  65  97 CALM      30.13F
NEWPORT NEWS   FAIR      66  65  96 CALM      30.13F
LANGLEY AFB    FAIR      70  68  95 SE3       30.12F
FORT EUSTIS    FAIR      68  62  81 CALM      30.11F
WILLIAMSBURG*  FAIR      66  66 100 SE3       30.14S
HR EXEC AP*      N/A     63  59  88 CALM      30.14F
FRANKLIN*      FAIR      63  61  93 CALM      30.14S
US460-WAKEFLD  FAIR      63  60  90 CALM      30.13F
$$

VAZ020-022-025-037-045-290800-
WEST CENTRAL AND SOUTHWEST VIRGINIA

CITY           SKY/WX    TMP DP  RH WIND       PRES   REMARKS
STAUNTON*      FAIR      61  59  95 CALM      30.18S
WAYNESBORO*    FAIR      61  58  90 CALM      30.17S
HOT SPRINGS VA FAIR      63  55  75 S3        30.24F
LYNCHBURG      FAIR      67  60  78 N5        30.15F
DANVILLE       FAIR      66  61  84 E3        30.12F
SOUTH BOSTON*  FAIR      64  62  95 CALM      30.12F
MARTINSVILLE   FAIR      61  60  97 CALM      30.16F
ROANOKE        FAIR      66  62  87 CALM      30.17F
BLACKSBURG     FAIR      63  60  90 CALM      30.22S
DUBLIN*        FAIR      64  62  95 CALM      30.20S
MARION*        LGT RAIN  61  58  88 CALM      30.23S
HILLSVILLE*    FAIR      65  54  67 CALM      30.21S
RICHLANDS*     FAIR      69  61  76 CALM      30.20S
WISE*          FAIR      64  50  59 CALM      30.21S
ABINGDON*      FAIR      69  56  65 E3        30.17F
$$

MDZ021>025-VAZ099-100-290800-
SOUTHERN MARYLAND AND THE DELMARVA PENINSULA

CITY           SKY/WX    TMP DP  RH WIND       PRES   REMARKS
PATUXENT RIVER CLEAR     61  59  93 CALM      30.14S
BAY BRIDGE APT PTCLDY    70  64  83 S6        30.14S
LEONARDTOWN    PTCLDY    61  59  94 CALM      30.15F
DOVER          CLEAR     65  64  97 S5        30.14S
GEORGETOWN     CLEAR     60  58  92 CALM      30.16S
EASTON         CLEAR     64  64  99 CALM      30.18F
CAMBRIDGE        N/A     59  59 100 CALM      30.14F
SALISBURY      CLOUDY    58  57  97 CALM      30.15F FOG
OCEAN CITY     CLEAR     64  62  93 CALM      30.15F
WALLOPS ISLAND FAIR      67  66  97 SE5       30.15F
ACCOMACK*      FAIR      68  64  88 SE6       30.13F
$$

NCZ012>017-030>032-290800-
NORTH CENTRAL AND EASTERN NORTH CAROLINA

CITY           SKY/WX    TMP DP  RH WIND       PRES   REMARKS
ROANOKE RAPIDS FAIR      63  63 100 CALM      30.12F
RALEIGH        CLOUDY    73  66  78 E3        30.10F
ELIZABETH CITY PTCLDY    70  69  97 E3        30.12F
AHOSKIE*       PTCLDY    65  64  93 CALM      30.12F
EDENTON*       PTCLDY   N/A N/A N/A NE3       30.12F
CURRITUCK*     PTCLDY    71  71 100 CALM      30.13F
KILL DEVIL HLS PTCLDY    68  67  96 CALM      30.11F FOG
MANTEO         NOT AVBL
CAPE HATTERAS  PTCLDY    76  72  87 SE7       30.10F
TARBORO*       FAIR      67  65  96 CALM      30.12F
GOLDSBORO      NOT AVBL
WASHINGTON     CLOUDY    69  68  97 NE5       30.10F
GREENVILLE     MOCLDY    70  70 100 NE3       30.11F
NEW BERN       MOCLDY    72  71  97 NE5       30.09F
WILMINGTON     LGT RAIN  72  71  97 NE8       30.03F
$$

VAZ048-290800-
ELSEWHERE

CITY           SKY/WX    TMP DP  RH WIND       PRES   REMARKS
HARRISBURG PA  CLEAR     71  63  75 SE5       30.11F
BALTIMORE      PTCLDY    65  59  81 CALM      30.13F
ANNAPOLIS      CLEAR     66  64  93 SE5       30.13F
ANDREWS AFB    FAIR      64  60  87 S5        30.13F
PHILADELPHIA   PTCLDY    69  60  73 S6        30.14F
HENDERSON NC   CLOUDY    66  62  87 CALM      30.12F
GREENSBORO     CLOUDY    71  59  65 CALM      30.11F
ROCKY MOUNT    CLOUDY    68  67  96 NE5       30.10F
$$

VAZ100-290800-
MARINE

STATION/POSITION TIME  TEMP    WIND        PRES    WAVE   SWELL
                       AIR SEA DIR/SP/G            HT/PER HT/PER
                 (UTC) (F)     (DEG/KT/KT) (MB)    (FT/S) (FT/S)
BRANDYWINE LGT   0600   65     190/  6/  6 1021.4F
CAPE MAY NJ      0600   65 69  160/  6/  9 1021.1F
LEWES DE         0600   66 64  170/  2/  3 1021.1F
15NM E FENWICK I 0650   65 63              1020.9F   2/ 7
OCEAN-CITY-INLET 0600   64 60  170/  5/  6 1021.5F
WACHAPREAGUE VA  0600   69 76   70/  2/  4 1020.4F
THOMAS POINT MD  0700   68 68  170/  8/  8 1021.8F
GOOSES REEF MD   0700   68 67  180/  4/  4 1021.6F   1
COVE POINT MD    0600   68     200/  7/  8 1021.3F
SOLOMONS ISLAND  0600   68 67  100/  3/  3   N/A
BISHOPS HEAD MD  0600   71 76  140/  8/  9 1020.8F
PINEY POINT MD   0600          160/  3/  4   N/A
POTOMAC MD       0700   69 70  150/  2/  2 1019.5F   0
CAMBRIDGE MD     0600   65 68  120/  2/  3 1020.1F
LEWISETTA VA     0600   70 68  200/  7/  8 1020.2F
RAPPAHANNOCK LGT 0600          130/  8/  9 1021.2F
STINGRAY PT      0600   69 69  190/  4/  4 1021.1F   1
YORK RVR RNG VA  0600   71     130/  6/  7 1020.0F
YORKTOWN VA      0600   70 70  150/  3/  3 1020.2F
JAMESTOWN VA     0700   71 74  110/  4/  6   N/A
DOMINION TERM VA 0600   71      70/  4/  5 1020.6F
KIPTOPEKE VA     0600      70  110/  7/  9   N/A
CHES BAY BRIDGE  0600   70 66   90/  3/  7 1020.6F
CAPE HENRY VA    0600   69     120/  5/  6   N/A
CHESAPEAKE LGHT  0600   70     110/  9/ 10 1021.4F
WILLOUBY STN VA  0600   70     110/  4/  5 1021.5F
CAPE HENRY BUOY  0612      68                N/A     3/ 7
1ST LANDING BUOY 0700   69 69  110/  6/  6 1020.0F   1/ 3
CAPE CHARLES BUO 0656      69                N/A     2/ 8   2/ 8
OFFSHORE WE BUOY 0651      70                N/A     3/ 8   3/ 8
64NM E OF VA BCH 0650   70 64  120/  4/  6 1020.2F   3/ 8   3/ 8
DUCK PIER NC     0600   69 60   80/  8/  9 1019.7F
44100 DUCK FRF   0654      70                N/A     3/ 8
44056 DUCK FRF   0611      67                N/A     3/ 7
OREGON INLET NC  0600   72 76  100/  5/  7 1019.9F
HATTERAS NC      0600   75 76  120/  4/  5 1019.0F
DIAMOND SHLS NC  0650   78 78  140/ 14/ 16 1019.1F   4/ 8   3/ 8
CAPE LOOKOUT NC  060C1F1C2F2C3F3C4F4C5F5C6F6C7F7C8M1C9!


USA.gov is the U.S. government's official web portal to all federal, state and local government web resources and services.